Location: Byszew
(52.1813°N, 19.2693°E)
Time: 18:40:54
(UTC+00:00)

ARIANE 5 R/B - Visible Passes

Search period start: 16 June 2021 00:00
Search period end: 26 June 2021 00:00
Orbit: 620 x 656 km, 98.1° (Epoch: 13 June)

Date Brightness Start Highest point End Pass type
(mag) Time Alt. Az. Time Alt. Az. Time Alt. Az.
16 Jun 2.9 20:06:55 10° S 20:11:21 71° WSW 20:15:53 10° NNW visible
17 Jun 3.6 20:30:05 10° S 20:34:19 44° W 20:38:39 10° NNW visible
18 Jun 4.3 20:53:32 10° SSW 20:57:22 28° W 21:01:15 10° NW visible
19 Jun 4.9 21:17:25 10° SW 21:20:30 18° W 21:23:35 10° NW visible
20 Jun 2.8 20:01:59 10° SSE 20:06:26 79° WSW 20:10:59 10° NNW visible
20 Jun 5.2 21:42:15 10° WSW 21:43:41 11° W 21:45:08 10° WNW visible
21 Jun 3.4 20:25:04 10° S 20:29:23 49° W 20:33:48 10° NNW visible
22 Jun 4.2 20:48:26 10° SSW 20:52:25 31° W 20:56:27 10° NNW visible
23 Jun 4.8 21:12:12 10° SW 21:15:30 20° W 21:18:53 10° NW visible
24 Jun 2.7 19:57:02 10° SSE 20:01:32 87° WSW 20:06:06 10° NNW visible
24 Jun 5.2 21:36:40 10° WSW 21:38:41 13° W 21:40:44 10° WNW visible
25 Jun 3.3 20:20:04 10° S 20:24:28 55° W 20:28:56 10° NNW visible
